DELTA 1 DEB, 10707

Orbit data source: Space-Track

DELTA 1 DEB, 10707 is space debris in LEO originally from a launch on Thu, 29 Jul 1976 UTC launched from the Air Force Western Test Range (AFWTR). Debris objects in space refer to the collection of defunct objects orbiting the Earth. Examples of debris include non-operational satellites, rocket bodies, and fragments generated from explosions, collisions, or faulty payload assembly.

Loading next visibility...
Identifier
10707, 1976-077AC
Orbit
LEO
Country
Flag of USUS
Related business
Manufacturer
Unknown
Mission
Spacecraft
Bus & Motor
Unknown
Mass
Unknown
Launch date (UTC)
1976-07-29 (49 years ago)
Launch vehicle
Unknown
Launch site
Air Force Western Test Range (AFWTR)
Object type
Payload
Rocket body
Debris
Shape & HBR
Unknown
Radar Cross Section
Small (<0.1 m²)

Expand to show TLE details & history
Last TLE update: 22 hours ago

TLE from 22 hours ago
0 DELTA 1 DEB
1 10707U 76077AC  25259.33684101  .00000397  00000-0  49881-2 0  9992
2 10707 102.2123 284.7890 0266510  50.6862 324.2595 11.98299187119559
Epoch: 2025-09-16T08:05Z
TLE epoch observation values (Epoch: 2025-09-16T08:05:03.063Z)
Latitude
12.77915°
Longitude
165.1977°
Altitude
1,517.727 km
Speed
7.183 km/s
True Right ascension
18h 47m 57s
True Declination
12° 42' 44"
Sunlit
Object was in daylight at epoch
Visualization orbit readout
Latitude
Unknown
Longitude
Unknown
Altitude
Unknown
Speed
Unknown
Apparent Right ascension
Unknown
Apparent Declination
Unknown
Sunlit
N/A
Visualization observer readout
Local Sidereal Time
22:30:50
Azimuth
Unknown
Elevation
Unknown
Doppler factor
Unknown
Orbital elements
Apogee altitude
1,901.044 km
Perigee altitude
1,471.203 km
Semi-major axis
8,064.261 km
Eccentricity
0.02665
Inclination
102.2123°
RAAN
284.789°
Arg. of periapsis
50.6862°
True anomaly
322.42642°
Mean anomaly
324.2595°
Eccentric anomaly
323.34796°
Mean motion
2.99707 °/min
Orbital period
120.12 mins
BSTAR
0.0049881
Loading maneuver chart data...
Computing Atmospheric mass density...
Loading historical data...
Loading historical data...
Loading historical data...
Loading historical data...
Loading historical data...
Loading historical data...
Loading historical data...

Documentation

Showing up to 5 results
|